Location: Molino di Ancona
(43.6167°N, 13.3667°E)
Time: 13:40:48
(UTC+00:00)

ISS - Visible Passes

Search period start: 28 February 2021 00:00
Search period end: 10 March 2021 00:00
Orbit: 417 x 422 km, 51.6° (Epoch: 28 February)

Date Brightness Start Highest point End Pass type
(mag) Time Alt. Az. Time Alt. Az. Time Alt. Az.
28 Feb -0.7 03:06:31 15° NE 03:06:31 15° NE 03:07:15 10° NE visible
28 Feb -2.0 04:39:28 15° NW 04:41:15 22° N 04:43:57 10° NE visible
01 Mar -2.1 03:53:50 24° N 03:53:50 24° N 03:56:27 10° NE visible
02 Mar -0.8 03:08:10 15° NE 03:08:10 15° NE 03:09:01 10° NE visible
02 Mar -1.8 04:41:07 11° NW 04:43:32 20° N 04:46:08 10° NE visible
03 Mar -1.8 03:55:27 20° NNW 03:55:51 20° N 03:58:27 10° NE visible
04 Mar -1.0 03:09:46 16° NNE 03:09:46 16° NNE 03:10:52 10° NE visible
04 Mar -1.9 04:42:57 10° NW 04:45:46 24° NNE 04:48:35 10° ENE visible
05 Mar -1.8 03:57:03 19° NNW 03:58:07 21° N 04:00:47 10° ENE visible
06 Mar -1.2 03:11:24 18° NNE 03:11:24 18° NNE 03:13:02 10° NE visible
06 Mar -2.5 04:44:43 10° NW 04:47:53 37° NNE 04:51:03 10° E visible
07 Mar -2.1 03:58:44 20° NNW 04:00:16 29° NNE 04:03:16 10° E visible
08 Mar -1.6 03:13:10 23° NNE 03:13:10 23° NNE 03:15:27 10° ENE visible
08 Mar -3.7 04:46:26 10° WNW 04:49:49 80° NNE 04:53:11 10° ESE visible
09 Mar -3.1 04:00:39 25° NW 04:02:18 52° NNE 04:05:35 10° ESE visible
